Left ArrowRight Arrow

33.98154, -81.23621

Hourly Observations for January 24, 2020

Temp ( °F °C ) Dew Point ( °F °C ) Humidity (%) Winds ( mph kmh ) Pressure ( in mb ) Visibility ( mi km ) Precip ( " mm )
12:56 am 00:56 Cloudy 47 8.3 38 3.3 71 71 ENE 6 9 30.15 1021 10 16 0.00 0.00
1:56 am 01:56 Cloudy 46 7.8 39 3.9 77 77 ENE 6 9 30.14 1021 10 16 0.00 0.00
2:56 am 02:56 Cloudy with Rain 46 7.8 40 4.4 79 79 ENE 3 6 30.13 1020 7 11 0.01 0.25
3:56 am 03:56 Cloudy with Heavy Rain 45 7.2 41 5 86 86 ENE 8 13 30.11 1020 4 6 0.01 0.25
4:03 am 04:03 Cloudy with Rain 45 7.2 42 5.6 90 90 ENE 3 6 30.13 1020 3 4 0.07 1.78
4:09 am 04:09 Cloudy with Rain 45 7.2 42 5.6 90 90 ENE 7 11 30.12 1020 4 6 0.08 2.03
4:56 am 04:56 Cloudy with Light Rain 45 7.2 42 5.6 90 90 NE 3 6 30.11 1020 10 16 0.09 2.29
5:17 am 05:17 Cloudy 45 7.2 43 6.1 93 93 NE 3 6 30.11 1020 9 14 0.00 0.00
5:56 am 05:56 Cloudy with Light Rain 45 7.2 43 6.1 93 93 ENE 7 11 30.09 1019 9 14 0.00 0.00
6:15 am 06:15 Cloudy 45 7.2 43 6.1 93 93 ENE 6 9 30.10 1019 9 14 0.00 0.00
6:56 am 06:56 Cloudy 46 7.8 44 6.7 93 93 Calm 30.10 1019 7 11 0.00 0.00
7:44 am 07:44 Cloudy with Light Rain 46 8 45 7 93 93 ESE 5 7 30.11 1019 5 8 0.00 0.00
7:56 am 07:56 Cloudy with Light Rain 46 7.8 44 6.7 93 93 ESE 6 9 30.09 1019 4 6 0.01 0.25
8:56 am 08:56 Cloudy with Mist and Fog 47 8.3 45 7.2 93 93 ESE 8 13 30.10 1019 4 6 0.00 0.00
9:56 am 09:56 Cloudy with Mist and Fog 49 9.4 47 8.3 93 93 ESE 9 15 30.09 1019 5 8 0.00 0.00
10:26 am 10:26 Cloudy 50 10 48 9 94 94 ESE 8 13 30.08 1019 7 11 0.00 0.00
10:56 am 10:56 Cloudy 53 11.7 50 10 89 89 ESE 10 17 30.06 1018 10 16 0.00 0.00
11:18 am 11:18 Mostly Cloudy 55 12.8 51 10.6 87 87 ESE 9 15 30.06 1018 10 16 0.00 0.00
11:25 am 11:25 Mostly Cloudy 56 13.3 51 10.6 84 84 ESE 6 9 30.05 1018 10 16 0.00 0.00
11:56 am 11:56 Mostly Cloudy 59 15 52 11.1 78 78 ESE 10 17 30.02 1017 10 16 0.00 0.00
12:56 pm 12:56 Cloudy 64 17.8 54 12.2 70 70 SE 12 19 29.97 1015 10 16 0.00 0.00
1:56 pm 13:56 Cloudy with Light Rain 63 17.2 55 12.8 76 76 S 12 19 29.95 1014 6 10 0.00 0.00
1:59 pm 13:59 Cloudy with Light Rain 62 16.7 55 12.8 78 78 S 10 17 29.95 1014 5 8 0.00 0.00
2:41 pm 14:41 Cloudy with Light Rain 62 16.7 57 13.9 84 84 SE 8 13 29.93 1013 10 16 0.02 0.51
2:56 pm 14:56 Cloudy with Light Rain 63 17.2 57 13.9 81 81 SSE 12 19 29.92 1013 10 16 0.02 0.51
3:56 pm 15:56 Mostly Cloudy with Light Rain 63 17.2 57 13.9 81 81 SSE 13 20 29.91 1013 10 16 0.00 0.00
4:56 pm 16:56 Cloudy 63 17.2 57 13.9 81 81 SSE 13 20 29.89 1012 10 16 0.00 0.00
5:09 pm 17:09 Cloudy with Heavy Rain 63 17.2 58 14.4 84 84 W 22 35 29.93 1013 1 2 0.01 0.25
5:11 pm 17:11 Cloudy with Heavy Rain 61 16.1 58 14.4 90 90 WSW 22 35 29.93 1013 0 0 0.04 1.02
5:13 pm 17:13 Cloudy with Heavy Rain 60 15.6 57 13.9 90 90 W 12 19 29.92 1013 0 0 0.15 3.81
5:15 pm 17:15 Cloudy with Heavy Rain 59 15 57 13.9 93 93 WSW 12 19 29.92 1013 1 2 0.33 8.38
5:41 pm 17:41 Mostly Cloudy with Light Rain 59 15 57 13.9 93 93 S 6 9 29.92 1013 3 5 0.40 10.16
5:56 pm 17:56 Mostly Cloudy with Light Rain 59 15 57 13.9 93 93 S 6 9 29.91 1013 9 14 0.41 10.41
6:56 pm 18:56 Cloudy 58 14.4 56 13.3 93 93 Calm 29.92 1013 10 16 0.00 0.00
7:56 pm 19:56 Cloudy with Light Rain 58 14.4 56 13.3 93 93 Calm 29.93 1014 5 8 0.04 1.02
8:14 pm 20:14 Cloudy with Light Rain 57 13.9 56 13.3 96 96 NW 5 7 29.94 1014 7 11 0.02 0.51
8:56 pm 20:56 Cloudy 56 13.3 54 12.2 93 93 Calm 29.93 1013 10 16 0.04 1.02
9:56 pm 21:56 Cloudy with Light Rain 56 13.3 54 12.2 93 93 NNW 5 7 29.93 1013 4 6 0.05 1.27
10:56 pm 22:56 Cloudy with Light Rain 53 11.7 50 10 89 89 WNW 7 11 29.94 1014 4 6 0.00 0.00
11:56 pm 23:56 Cloudy with Mist and Fog 52 11.1 51 10.6 97 97 WSW 3 6 29.94 1014 6 10 0.00 0.00

Powered by Vaisala Xweather